H1 CPF 2 NER 2022 5 6 9 126 01 glonass134 H2 1407501 9134 40315 2022 5 6 0 0 0 2022 5 9 23 45 0 900 1 1 0 0 0 1 H9 10 0 59705 0.00000 0 -23719545.922 -3610210.252 8566648.748 10 0 59705 900.00000 0 -24576093.232 -3779579.633 5530427.287 10 0 59705 1800.00000 0 -25070960.748 -3802561.328 2386324.042 10 0 59705 2700.00000 0 -25180394.975 -3727881.709 -804343.310 10 0 59705 3600.00000 0 -24893215.302 -3608059.030 -3979305.589 10 0 59705 4500.00000 0 -24211328.590 -3496917.657 -7076576.376 10 0 59705 5400.00000 0 -23149707.753 -3447048.335 -10035682.465 10 0 59705 6300.00000 0 -21735834.519 -3507324.803 -12798864.313 10 0 59705 7200.00000 0 -20008629.953 -3720584.581 -15312220.845 10 0 59705 8100.00000 0 -18016918.444 -4121574.607 -17526774.548 10 0 59705 9000.00000 0 -15817491.014 -4735250.583 -19399434.762 10 0 59705 9900.00000 0 -13472850.867 -5575503.303 -20893839.574 10 0 59705 10800.00000 0 -11048737.303 -6644366.436 -21981059.854 10 0 59705 11700.00000 0 -8611533.063 -7931739.286 -22640152.185 10 0 59705 12600.00000 0 -6225664.471 -9415635.717 -22858550.912 10 0 59705 13500.00000 0 -3951103.238 -11062947.977 -22632293.069 10 0 59705 14400.00000 0 -1841073.639 -12830692.330 -21966073.489 10 0 59705 15300.00000 0 59940.517 -14667683.174 -20873130.720 10 0 59705 16200.00000 0 1717808.065 -16516564.637 -19374967.707 10 0 59705 17100.00000 0 3109917.214 -18316114.052 -17500914.193 10 0 59705 18000.00000 0 4225851.123 -20003720.673 -15287540.646 10 0 59705 18900.00000 0 5067547.365 -21517936.241 -12777936.119 10 0 59705 19800.00000 0 5648937.830 -22800991.481 -10020864.671 10 0 59705 20700.00000 0 5995086.967 -23801174.291 -7069817.150 10 0 59705 21600.00000 0 6140867.008 -24474971.526 -3981976.656 10 0 59705 22500.00000 0 6129227.588 -24788886.372 -817117.457 10 0 59705 23400.00000 0 6009133.639 -24720856.617 2363541.865 10 0 59705 24300.00000 0 5833258.802 -24261215.964 5498509.665 10 0 59705 25200.00000 0 5655531.302 -23413159.231 8527195.282 10 0 59705 26100.00000 0 5528635.012 -22192692.487 11391064.311 10 0 59705 27000.00000 0 5501570.057 -20628070.272 14034754.161 10 0 59705 27900.00000 0 5617374.710 -18758742.816 16407129.716 10 0 59705 28800.00000 0 5911103.628 -16633856.120 18462260.000 10 0 59705 29700.00000 0 6408147.008 -14310365.753 20160298.214 10 0 59705 30600.00000 0 7122961.434 -11850840.882 21468249.161 10 0 59705 31500.00000 0 8058266.409 -9321047.777 22360609.809 10 0 59705 32400.00000 0 9204741.755 -6787410.952 22819870.874 10 0 59705 33300.00000 0 10541240.666 -4314455.390 22836869.444 10 0 59705 34200.00000 0 12035512.053 -1962334.504 22410985.018 10 0 59705 35100.00000 0 13645404.865 215454.707 21550173.913 10 0 59705 36000.00000 0 15320506.922 2174074.923 20270839.626 10 0 59705 36900.00000 0 17004152.322 3878986.846 18597539.693 10 0 59705 37800.00000 0 18635715.590 5307153.893 16562532.584 10 0 59705 38700.00000 0 20153097.911 6447762.186 14205171.312 10 0 59705 39600.00000 0 21495301.773 7302424.681 11571153.733 10 0 59705 40500.00000 0 22604985.660 7884859.973 8711642.727 10 0 59705 41400.00000 0 23430890.329 8220058.633 5682272.496 10 0 59705 42300.00000 0 23930032.716 8342971.926 2542060.309 10 0 59705 43200.00000 0 24069572.898 8296778.645 -647754.620 10 0 59705 44100.00000 0 23828272.969 8130804.335 -3824921.261 10 0 59705 45000.00000 0 23197484.057 7898182.573 -6927410.510 10 0 59705 45900.00000 0 22181617.957 7653359.551 -9894646.438 10 0 59705 46800.00000 0 20798082.202 7449550.163 -12668708.813 10 0 59705 47700.00000 0 19076680.722 7336255.966 -15195481.265 10 0 59705 48600.00000 0 17058505.440 7356952.623 -17425720.883 10 0 59705 49500.00000 0 14794366.139 7547046.784 -19316027.072 10 0 59705 50400.00000 0 12342825.738 7932190.333 -20829689.909 10 0 59705 51300.00000 0 9767924.760 8527024.123 -21937401.366 10 0 59705 52200.00000 0 7136691.545 9334404.412 -22617815.987 10 0 59705 53100.00000 0 4516543.433 10345144.188 -22857951.018 10 0 59705 54000.00000 0 1972687.881 11538279.399 -22653419.647 10 0 59705 54900.00000 0 -434368.261 12881847.711 -22008494.406 10 0 59705 55800.00000 0 -2651098.306 14334145.742 -20936001.273 10 0 59705 56700.00000 0 -4632930.857 15845410.790 -19457048.243 10 0 59705 57600.00000 0 -6345840.512 17359855.543 -17600595.203 10 0 59705 58500.00000 0 -7767490.596 18817969.815 -15402874.801 10 0 59705 59400.00000 0 -8887883.421 20158992.649 -12906676.571 10 0 59705 60300.00000 0 -9709494.184 21323451.550 -10160508.870 10 0 59705 61200.00000 0 -10246885.915 22255663.082 -7217655.310 10 0 59705 62100.00000 0 -10525824.398 22906091.152 -4135143.967 10 0 59705 63000.00000 0 -10581932.341 23233465.376 -972649.020 10 0 59705 63900.00000 0 -10458940.885 23206572.086 2208654.377 10 0 59705 64800.00000 0 -10206612.828 22805644.323 5347260.666 10 0 59705 65700.00000 0 -9878425.125 22023293.510 8382508.310 10 0 59705 66600.00000 0 -9529107.771 20864944.481 11255736.476 10 0 59705 67500.00000 0 -9212141.890 19348755.752 13911402.984 10 0 59705 68400.00000 0 -8977321.276 17505027.818 16298143.325 10 0 59705 69300.00000 0 -8868478.926 15375123.166 18369751.562 10 0 59705 70200.00000 0 -8921473.341 13009941.353 20086065.435 10 0 59705 71100.00000 0 -9162518.778 10468010.555 21413739.585 10 0 59705 72000.00000 0 -9606929.728 7813272.655 22326892.557 10 0 59705 72900.00000 0 -10258333.078 5112651.410 22807615.378 10 0 59705 73800.00000 0 -11108382.490 2433502.305 22846331.603 10 0 59705 74700.00000 0 -12136988.980 -158952.034 22442001.098 10 0 59705 75600.00000 0 -13313060.552 -2604096.045 21602162.389 10 0 59705 76500.00000 0 -14595722.551 -4848203.320 20342811.032 10 0 59705 77400.00000 0 -15935970.226 -6846432.067 18688114.408 10 0 59705 78300.00000 0 -17278686.509 -8564450.740 16669966.326 10 0 59705 79200.00000 0 -18564942.083 -9979625.437 14327387.961 10 0 59705 80100.00000 0 -19734482.061 -11081718.462 11705784.958 10 0 59705 81000.00000 0 -20728294.871 -11873067.811 8856073.699 10 0 59705 81900.00000 0 -21491154.424 -12368239.184 5833692.854 10 0 59705 82800.00000 0 -21974026.921 -12593164.576 2697519.339 10 0 59705 83700.00000 0 -22136238.657 -12583803.783 -491289.674 10 0 59705 84600.00000 0 -21947310.880 -12384385.954 -3670505.016 10 0 59705 85500.00000 0 -21388381.730 -12045306.770 -6778058.661 10 0 59706 0.00000 0 -20453153.024 -11620772.141 -9753275.429 10 0 59706 900.00000 0 -19148319.535 -11166290.234 -12538078.581 10 0 59706 1800.00000 0 -17493462.832 -10736121.101 -15078139.622 10 0 59706 2700.00000 0 -15520411.964 -10380793.590 -17323953.408 10 0 59706 3600.00000 0 -13272099.231 -10144797.347 -19231812.173 10 0 59706 4500.00000 0 -10800959.452 -10064548.995 -20764660.239 10 0 59706 5400.00000 0 -8166940.986 -10166719.467 -21892812.342 10 0 59706 6300.00000 0 -5435212.974 -10466993.474 -22594521.987 10 0 59706 7200.00000 0 -2673665.766 -10969313.025 -22856389.678 10 0 59706 8100.00000 0 49690.420 -11665635.972 -22673604.468 10 0 59706 9000.00000 0 2669320.059 -12536218.373 -22050015.737 10 0 59706 9900.00000 0 5124642.384 -13550407.222 -20998035.550 10 0 59706 10800.00000 0 7362294.995 -14667908.622 -19538375.206 10 0 59706 11700.00000 0 9338088.645 -15840476.718 -17699622.667 10 0 59706 12600.00000 0 11018574.176 -17013951.329 -15517670.406 10 0 59706 13500.00000 0 12382159.274 -18130558.070 -13035005.863 10 0 59706 14400.00000 0 13419731.557 -19131374.262 -10299878.937 10 0 59706 15300.00000 0 14134765.013 -19958857.327 -7365363.106 10 0 59706 16200.00000 0 14542908.288 -20559330.306 -4288328.420 10 0 59706 17100.00000 0 14671074.502 -20885321.113 -1128345.931 10 0 59706 18000.00000 0 14556072.655 -20897658.511 2053455.643 10 0 59706 18900.00000 0 14242839.349 -20567238.099 5195559.747 10 0 59706 19800.00000 0 13782345.672 -19876385.229 8237236.727 10 0 59706 20700.00000 0 13229267.106 -18819758.426 11119701.838 10 0 59706 21600.00000 0 12639513.798 -17404755.601 13787235.547 10 0 59706 22500.00000 0 12067724.072 -15651405.731 16188245.864 10 0 59706 23400.00000 0 11564825.334 -13591749.512 18276253.467 10 0 59706 24300.00000 0 11175763.763 -11268733.258 20010781.848 10 0 59706 25200.00000 0 10937497.249 -8734659.981 21358136.332 10 0 59706 26100.00000 0 10877335.421 -6049259.667 22292057.538 10 0 59706 27000.00000 0 11011696.532 -3277456.281 22794236.948 10 0 59706 27900.00000 0 11345334.137 -486921.521 22854684.409 10 0 59706 28800.00000 0 11871067.400 2254485.473 22471939.692 10 0 59706 29700.00000 0 12570028.247 4881288.247 21653122.814 10 0 59706 30600.00000 0 13412417.309 7332867.768 20413820.446 10 0 59706 31500.00000 0 14358739.313 9555739.641 18777808.676 10 0 59706 32400.00000 0 15361468.338 11505539.296 16776615.340 10 0 59706 33300.00000 0 16367074.818 13148631.980 14448928.303 10 0 59706 34200.00000 0 17318330.267 14463279.439 11839859.365 10 0 59706 35100.00000 0 18156793.147 15440313.410 9000076.610 10 0 59706 36000.00000 0 18825370.702 16083286.603 5984821.200 10 0 59706 36900.00000 0 19270847.433 16408093.934 2852827.580 10 0 59706 37800.00000 0 19446271.555 16442079.557 -334831.374 10 0 59706 38700.00000 0 19313096.181 16222667.524 -3515950.683 10 0 59706 39600.00000 0 18842982.144 15795574.722 -6628425.751 10 0 59706 40500.00000 0 18019183.688 15212683.101 -9611484.966 10 0 59706 41400.00000 0 16837456.253 14529663.180 -12406896.200 10 0 59706 42300.00000 0 15306446.324 13803451.702 -14960121.427 10 0 59706 43200.00000 0 13447545.851 13089692.554 -17221395.135 10 0 59706 44100.00000 0 11294216.945 12440251.397 -19146704.077 10 0 59706 45000.00000 0 8890815.539 11900910.890 -20698648.357 10 0 59706 45900.00000 0 6290964.057 11509345.055 -21847166.866 10 0 59706 46800.00000 0 3555542.222 11293458.743 -22570113.324 10 0 59706 47700.00000 0 750381.112 11270162.003 -22853672.578 10 0 59706 48600.00000 0 -2056242.465 11444630.032 -22692610.429 10 0 59706 49500.00000 0 -4796206.413 11810078.411 -22090353.734 10 0 59706 50400.00000 0 -7404130.331 12348061.242 -21058900.956 10 0 59706 51300.00000 0 -9819842.149 13029277.703 -19618566.651 10 0 59706 52200.00000 0 -11990623.262 13814851.204 -17797566.421 10 0 59706 53100.00000 0 -13873140.615 14658025.759 -15631451.785 10 0 59706 54000.00000 0 -15434987.911 15506207.032 -13162406.979 10 0 59706 54900.00000 0 -16655774.491 16303261.533 -10438422.036 10 0 59706 55800.00000 0 -17527719.497 16991977.174 -7512358.662 10 0 59706 56700.00000 0 -18055729.306 17516581.989 -4440927.052 10 0 59706 57600.00000 0 -18256957.545 17825215.722 -1283593.130 10 0 59706 58500.00000 0 -18159868.317 17872251.478 1898562.984 10 0 59706 59400.00000 0 -17802843.420 17620370.872 5044016.055 10 0 59706 60300.00000 0 -17232392.833 17042306.544 8091970.761 10 0 59706 61200.00000 0 -16501043.815 16122179.638 10983521.041 10 0 59706 62100.00000 0 -15664996.827 14856376.485 13662772.719 10 0 59706 63000.00000 0 -14781645.819 13253927.520 16077909.111 10 0 59706 63900.00000 0 -13907065.819 11336371.824 18182180.297 10 0 59706 64800.00000 0 -13093571.941 9137111.420 19934798.267 10 0 59706 65700.00000 0 -12387451.019 6700280.228 21301721.652 10 0 59706 66600.00000 0 -11826960.083 4079172.283 22256315.561 10 0 59706 67500.00000 0 -11440675.150 1334291.787 22779874.086 10 0 59706 68400.00000 0 -11246259.630 -1468896.922 22861995.186 10 0 59706 69300.00000 0 -11249704.743 -4262428.716 22500799.958 10 0 59706 70200.00000 0 -11445075.060 -6978406.690 21702990.869 10 0 59706 71100.00000 0 -11814771.623 -9551576.058 20483746.187 10 0 59706 72000.00000 0 -12330303.610 -11921797.119 18866450.654 10 0 59706 72900.00000 0 -12953538.202 -14036314.965 16882265.547 10 0 59706 73800.00000 0 -13638377.936 -15851731.260 14569544.310 10 0 59706 74700.00000 0 -14332796.315 -17335594.955 11973103.276 10 0 59706 75600.00000 0 -14981146.590 -18467544.408 9143360.162 10 0 59706 76500.00000 0 -15526646.245 -19239951.744 6135356.152 10 0 59706 77400.00000 0 -15913931.357 -19658041.190 3007680.414 10 0 59706 78300.00000 0 -16091571.208 -19739475.595 -178681.572 10 0 59706 79200.00000 0 -16014434.561 -19513428.231 -3361552.336 10 0 59706 80100.00000 0 -15645804.880 -19019179.304 -6478794.215 10 0 59706 81000.00000 0 -14959152.310 -18304297.501 -9469542.527 10 0 59706 81900.00000 0 -13939484.929 -17422484.979 -12275413.954 10 0 59706 82800.00000 0 -12584220.082 -16431178.937 -14841664.285 10 0 59706 83700.00000 0 -10903537.453 -15389013.447 -17118271.098 10 0 59706 84600.00000 0 -8920198.063 -14353250.968 -19060918.848 10 0 59706 85500.00000 0 -6668836.642 -13377293.981 -20631866.185 10 0 59707 0.00000 0 -4194757.597 -12508383.184 -21800678.321 10 0 59707 900.00000 0 -1552284.367 -11785579.561 -22544811.058 10 0 59707 1800.00000 0 1197264.413 -11238116.421 -22850034.487 10 0 59707 2700.00000 0 3987891.025 -10884188.388 -22710691.563 10 0 59707 3600.00000 0 6751426.549 -10730228.005 -22129786.432 10 0 59707 4500.00000 0 9420127.057 -10770697.903 -21118903.243 10 0 59707 5400.00000 0 11929250.223 -10988405.087 -19697958.631 10 0 59707 6300.00000 0 14219506.079 -11355321.823 -17894794.246 10 0 59707 7200.00000 0 16239281.434 -11833876.446 -15744618.663 10 0 59707 8100.00000 0 17946547.424 -12378658.007 -13289310.557 10 0 59707 9000.00000 0 19310373.297 -12938461.743 -10576597.408 10 0 59707 9900.00000 0 20311985.900 -13458588.558 -7659126.154 10 0 59707 10800.00000 0 20945333.457 -13883301.516 -4593443.852 10 0 59707 11700.00000 0 21217132.656 -14158336.292 -1438907.866 10 0 59707 12600.00000 0 21146399.200 -14233360.521 1743453.782 10 0 59707 13500.00000 0 20763483.246 -14064279.499 4892110.644 10 0 59707 14400.00000 0 20108651.338 -13615292.316 7946205.041 10 0 59707 15300.00000 0 19230274.608 -12860612.730 10846712.633 10 0 59707 16200.00000 0 18182699.068 -11785783.049 13537567.296 10 0 59707 17100.00000 0 17023886.547 -10388525.881 15966729.938 10 0 59707 18000.00000 0 15812924.018 -8679097.536 18087181.908 10 0 59707 18900.00000 0 14607504.295 -6680127.017 19857825.116 10 0 59707 19800.00000 0 13461482.177 -4425945.427 21244272.500 10 0 59707 20700.00000 0 12422607.150 -1961431.382 22219514.247 10 0 59707 21600.00000 0 11530526.564 659582.360 22764447.259 10 0 59707 22500.00000 0 10815142.461 3376277.858 22868257.429 10 0 59707 23400.00000 0 10295390.927 6123117.591 22528646.652 10 0 59707 24300.00000 0 9978495.783 8832315.418 21751899.014 10 0 59707 25200.00000 0 9859729.054 11436412.476 20552783.240 10 0 59707 26100.00000 0 9922689.855 13870852.536 18954291.335 10 0 59707 27000.00000 0 10140091.711 16076450.560 16987216.399 10 0 59707 27900.00000 0 10475026.876 18001651.803 14689575.627 10 0 59707 28800.00000 0 10882655.846 19604486.549 12105887.881 10 0 59707 29700.00000 0 11312251.685 20854137.754 9286318.338 10 0 59707 30600.00000 0 11709513.055 21732054.521 6285705.870 10 0 59707 31500.00000 0 12019047.647 22232563.188 3162491.911 10 0 59707 32400.00000 0 12186919.574 22362949.119 -22427.984 10 0 59707 33300.00000 0 12163150.922 22143004.910 -3206906.430 10 0 59707 34200.00000 0 11904069.047 21604063.795 -6328775.205 10 0 59707 35100.00000 0 11374397.470 20787559.535 -9327078.965 10 0 59707 36000.00000 0 10548999.207 19743174.653 -12143285.433 10 0 59707 36900.00000 0 9414196.336 18526656.927 -14722446.222 10 0 59707 37800.00000 0 7968608.130 17197398.363 -17014283.771 10 0 59707 38700.00000 0 6223470.998 15815880.949 -18974181.772 10 0 59707 39600.00000 0 4202426.126 14441098.947 -20564058.744 10 0 59707 40500.00000 0 1940783.650 13128067.922 -21753107.503 10 0 59707 41400.00000 0 -515705.393 11925526.332 -22518386.426 10 0 59707 42300.00000 0 -3112517.067 10873926.592 -22845251.795 10 0 59707 43200.00000 0 -5788391.968 10003799.457 -22727624.165 10 0 59707 44100.00000 0 -8477656.267 9334559.046 -22168085.128 10 0 59707 45000.00000 0 -11112729.071 8873796.742 -21177804.338 10 0 59707 45900.00000 0 -13626711.671 8617091.158 -19776299.967 10 0 59707 46800.00000 0 -15955951.385 8548339.499 -17991038.820 10 0 59707 47700.00000 0 -18042474.309 8640593.812 -15856885.317 10 0 59707 48600.00000 0 -19836187.265 8857364.583 -13415411.104 10 0 59707 49500.00000 0 -21296759.381 9154334.940 -10714079.443 10 0 59707 50400.00000 0 -22395107.106 9481411.982 -7805320.709 10 0 59707 51300.00000 0 -23114423.237 9785028.089 -4745516.970 10 0 59707 52200.00000 0 -23450709.395 10010595.104 -1593915.089 10 0 59707 53100.00000 0 -23412791.812 10105008.316 1588511.019 10 0 59707 54000.00000 0 -23021821.663 10019095.506 4740227.756 10 0 59707 54900.00000 0 -22310282.035 9709908.769 7800317.250 10 0 59707 55800.00000 0 -21320543.770 9142763.594 10709639.155 10 0 59707 56700.00000 0 -20103030.663 8292940.116 13411957.750 10 0 59707 57600.00000 0 -18714070.216 7146975.304 15855013.936 10 0 59707 58500.00000 0 -17213518.853 5703491.651 17991522.728 10 0 59707 59400.00000 0 -15662259.561 3973526.727 19780078.282 10 0 59707 60300.00000 0 -14119674.971 1980348.180 21185950.020 10 0 59707 61200.00000 0 -12641200.032 -241240.247 22181755.186 10 0 59707 62100.00000 0 -11276055.173 -2646075.492 22747995.195 10 0 59707 63000.00000 0 -10065253.736 -5180248.827 22873445.280 10 0 59707 63900.00000 0 -9039966.539 -7783092.294 22555389.205 10 0 59707 64800.00000 0 -8220312.028 -10389458.368 21799693.379 10 0 59707 65700.00000 0 -7614623.261 -12932200.676 20620717.311 10 0 59707 66600.00000 0 -7219223.565 -15344754.510 19041060.209 10 0 59707 67500.00000 0 -7018721.586 -17563711.044 17091146.524 10 0 59707 68400.00000 0 -6986814.806 -19531278.446 14808656.336 10 0 59707 69300.00000 0 -7087569.039 -21197526.820 12237809.773 10 0 59707 70200.00000 0 -7277120.921 -22522322.169 9428517.843 10 0 59707 71100.00000 0 -7505731.887 -23476866.978 6435415.154 10 0 59707 72000.00000 0 -7720106.547 -24044781.052 3316793.143 10 0 59707 72900.00000 0 -7865876.307 -24222675.577 133454.908 10 0 59707 73800.00000 0 -7890141.285 -24020194.947 -3052485.023 10 0 59707 74700.00000 0 -7743960.578 -23459523.736 -6178830.873 10 0 59707 75600.00000 0 -7384682.666 -22574379.490 -9184539.818 10 0 59707 76500.00000 0 -6778014.483 -21408534.370 -12010933.942 10 0 59707 77400.00000 0 -5899738.973 -20013929.246 -14602864.055 10 0 59707 78300.00000 0 -4737006.220 -18448461.466 -16909800.798 10 0 59707 79200.00000 0 -3289141.943 -16773541.551 -18886830.264 10 0 59707 80100.00000 0 -1567938.189 -15051523.717 -20495533.717 10 0 59707 81000.00000 0 402586.425 -13343120.066 -21704733.968 10 0 59707 81900.00000 0 2586946.778 -11704908.336 -22491094.157 10 0 59707 82800.00000 0 4939439.100 -10187038.422 -22839558.078 10 0 59707 83700.00000 0 7405823.639 -8831233.601 -22743624.771 10 0 59707 84600.00000 0 9925370.995 -7669169.145 -22205453.624 10 0 59707 85500.00000 0 12433185.945 -6721294.505 -21235799.637 10 0 59708 0.00000 0 14862711.347 -5996146.015 -19853782.028 10 0 59708 900.00000 0 17148309.172 -5490175.784 -18086491.426 10 0 59708 1800.00000 0 19227808.389 -5188101.968 -15968446.680 10 0 59708 2700.00000 0 21044919.128 -5063761.559 -13540910.439 10 0 59708 3600.00000 0 22551410.806 -5081428.417 -10851079.357 10 0 59708 4500.00000 0 23708966.572 -5197538.700 -7951164.443 10 0 59708 5400.00000 0 24490638.759 -5362749.803 -4897379.617 10 0 59708 6300.00000 0 24881846.672 -5524245.327 -1748857.825 10 0 59708 7200.00000 0 24880877.084 -5628188.864 1433484.702 10 0 59708 8100.00000 0 24498868.348 -5622223.576 4588114.827 10 0 59708 9000.00000 0 23759280.070 -5457912.962 7654057.996 10 0 59708 9900.00000 0 22696871.258 -5093020.921 10572061.134 10 0 59708 10800.00000 0 21356229.838 -4493535.890 13285721.890 10 0 59708 11700.00000 0 19789914.522 -3635354.483 15742563.756 10 0 59708 12600.00000 0 18056285.753 -2505554.012 17895037.606 10 0 59708 13500.00000 0 16217114.879 -1103199.962 19701431.614 10 0 59708 14400.00000 0 14335069.730 560346.598 21126673.048 10 0 59708 15300.00000 0 12471179.772 2461636.365 22143007.158 10 0 59708 16200.00000 0 10682384.956 4565847.718 22730540.430 10 0 59708 17100.00000 0 9019269.117 6827984.302 22877637.593 10 0 59708 18000.00000 0 7524071.606 9194507.413 22581164.032 10 0 59708 18900.00000 0 6229059.698 11605338.409 21846567.847 10 0 59708 19800.00000 0 5155329.880 13996150.635 20687798.313 10 0 59708 20700.00000 0 4312088.800 16300857.708 19127060.462 10 0 59708 21600.00000 0 3696444.942 18454196.199 17194408.394 10 0 59708 22500.00000 0 3293720.960 20394295.834 14927183.086 10 0 59708 23400.00000 0 3078274.739 22065129.833 12369303.701 10 0 59708 24300.00000 0 3014795.562 23418742.169 9570424.624 10 0 59708 25200.00000 0 3060021.193 24417157.047 6584973.570 10 0 59708 26100.00000 0 3164803.310 25033888.656 3471089.217 10 0 59708 27000.00000 0 3276433.103 25254985.859 289479.350 10 0 59708 27900.00000 0 3341127.104 25079566.110 -2897777.224 10 0 59708 28800.00000 0 3306565.852 24519814.714 -6028459.990 10 0 59708 29700.00000 0 3124375.277 23600448.747 -9041441.323 10 0 59708 30600.00000 0 2752442.896 22357668.149 -11877900.140 10 0 59708 31500.00000 0 2156968.033 20837638.882 -14482488.663 10 0 59708 32400.00000 0 1314156.833 19094573.334 -16804427.653 10 0 59708 33300.00000 0 211488.438 17188490.447 -18798507.231 10 0 59708 34200.00000 0 -1151502.472 15182751.722 -20425972.741 10 0 59708 35100.00000 0 -2762960.503 13141478.377 -21655278.036 10 0 59708 36000.00000 0 -4598973.039 11126959.475 -22462691.798 10 0 59708 36900.00000 0 -6624350.895 9197160.530 -22832745.806 10 0 59708 37800.00000 0 -8793892.692 7403437.048 -22758517.744 10 0 59708 38700.00000 0 -11054079.169 5788547.858 -22241744.599 10 0 59708 39600.00000 0 -13345125.656 4385049.932 -21292766.147 10 0 59708 40500.00000 0 -15603306.415 3214139.500 -19930301.412 10 0 59708 41400.00000 0 -17763453.566 2284985.172 -18181064.023 10 0 59708 42300.00000 0 -19761526.482 1594577.983 -16079225.406 10 0 59708 43200.00000 0 -21537145.180 1128101.442 -13665737.350 10 0 59708 44100.00000 0 -23035983.129 859803.153 -10987527.850 10 0 59708 45000.00000 0 -24211921.241 754328.897 -8096586.418 10 0 59708 45900.00000 0 -25028874.828 768461.126 -5048956.656 10 0 59708 46800.00000 0 -25462219.108 853187.400 -1903655.405 10 0 59708 47700.00000 0 -25499755.636 956011.040 1278460.973 10 0 59708 48600.00000 0 -25142180.871 1023406.604 4435862.003 10 0 59708 49500.00000 0 -24403038.615 1003317.167 7507518.651 10 0 59708 50400.00000 0 -23308159.106 847588.999 10434067.355 10 0 59708 51300.00000 0 -21894608.401 514241.941 13158941.371 10 0 59708 52200.00000 0 -20209191.576 -30519.332 15629448.975 10 0 59708 53100.00000 0 -18306571.311 -810637.244 17797778.995 10 0 59708 54000.00000 0 -16247078.978 -1838946.625 19621915.558 10 0 59708 54900.00000 0 -14094307.695 -3116386.704 21066445.491 10 0 59708 55800.00000 0 -11912585.798 -4631714.177 22103243.489 10 0 59708 56700.00000 0 -9764434.024 -6361731.402 22712022.240 10 0 59708 57600.00000 0 -7708110.577 -8272022.833 22880736.780 10 0 59708 58500.00000 0 -5795344.991 -10318171.854 22605834.616 10 0 59708 59400.00000 0 -4069354.353 -12447410.436 21892345.717 10 0 59708 60300.00000 0 -2563224.189 -14600635.823 20753809.017 10 0 59708 61200.00000 0 -1298721.891 -16714712.714 19212034.966 10 0 59708 62100.00000 0 -285592.859 -18724966.918 17296706.629 10 0 59708 63000.00000 0 478630.221 -20567767.602 15044824.886 10 0 59708 63900.00000 0 1008295.880 -22183090.490 12500006.648 10 0 59708 64800.00000 0 1328793.177 -23516954.263 9711648.109 10 0 59708 65700.00000 0 1475236.603 -24523626.790 6733968.254 10 0 59708 66600.00000 0 1490731.937 -25167506.761 3624950.913 10 0 59708 67500.00000 0 1424296.872 -25424599.528 445206.258 10 0 59708 68400.00000 0 1328525.598 -25283522.953 -2743225.126 10 0 59708 69300.00000 0 1257098.055 -24745999.018 -5878100.654 10 0 59708 70200.00000 0 1262241.767 -23826809.148 -8898210.715 10 0 59708 71100.00000 0 1392256.459 -22553214.418 -11744593.981 10 0 59708 72000.00000 0 1689209.054 -20963865.126 -14361707.059 10 0 59708 72900.00000 0 2186899.198 -19107246.380 -16698523.772 10 0 59708 73800.00000 0 2909183.573 -17039726.356 -18709541.090 10 0 59708 74700.00000 0 3868731.331 -14823290.924 -20355671.003 10 0 59708 75600.00000 0 5066264.209 -12523061.411 -21605000.652 10 0 59708 76500.00000 0 6490313.613 -10204701.062 -22433406.070 10 0 59708 77400.00000 0 8117504.638 -7931819.869 -22825008.373 10 0 59708 78300.00000 0 9913354.428 -5763486.743 -22772464.749 10 0 59708 79200.00000 0 11833550.441 -3751952.553 -22277090.168 10 0 59708 80100.00000 0 13825654.044 -1940678.062 -21348809.109 10 0 59708 81000.00000 0 15831157.260 -362747.103 -20005940.039 10 0 59708 81900.00000 0 17787806.078 960271.320 -18274818.427 10 0 59708 82800.00000 0 19632092.953 2018967.405 -16189267.067 10 0 59708 83700.00000 0 21301814.608 2816217.732 -13789925.150 10 0 59708 84600.00000 0 22738588.992 3366793.154 -11123449.897 10 0 59708 85500.00000 0 23890227.305 3696466.679 -8241606.813 99